Location: Holyhead Bay
(53.3667°N, 4.6667°W)
Time: 05:57:23
(UTC+00:00)

ELECTRON KICK STAGE R/B - Visible Passes

Search period start: 21 June 2021 00:00
Search period end: 01 July 2021 00:00
Orbit: 537 x 546 km, 45.0° (Epoch: 19 June)

Date Brightness Start Highest point End Pass type
(mag) Time Alt. Az. Time Alt. Az. Time Alt. Az.
21 Jun ? 22:46:20 10° WSW 22:49:22 20° SSW 22:51:03 16° SSE visible
22 Jun ? 22:37:53 10° WSW 22:40:42 18° SSW 22:42:26 14° S visible
23 Jun ? 22:29:28 10° WSW 22:32:02 16° SSW 22:33:52 13° S visible
24 Jun ? 22:21:10 10° WSW 22:23:21 14° SSW 22:25:19 11° S visible
25 Jun ? 22:13:01 10° SW 22:14:40 12° SSW 22:16:18 10° S visible
26 Jun ? 22:05:31 10° SW 22:05:57 10° SSW 22:06:24 10° SSW visible
